When you browse on this site, cookies collect data to enhance your experience and personalize the content and advertising you see.
Visit our Privacy Policy to learn more. By continuing to use the site, you agree to this use of cookies and data.
  • en France
  • Liste des pays
  • À 7 jours
  • Température de l'eau
  • Carte satellitaire
  • Carte météo
  • Widgets météo
  • user-avatar
    Se connecter

    Météo par heure à Buna

    Ce jour, 16 Juillet, Mardi

    Heure Température Précipitation Vent Pression Humidité
    00:00 +16°C° 0.4 mm 2 m/s 715 mmHg 84%
    01:00 +16°C° 0 mm 2 m/s 715 mmHg 85%
    02:00 +16°C° 0.1 mm 2 m/s 715 mmHg 86%
    03:00 +15°C° 0.1 mm 2 m/s 715 mmHg 86%
    04:00 +15°C° 0.1 mm 2 m/s 715 mmHg 86%
    05:00 +16°C° 0 mm 3 m/s 715 mmHg 83%
    06:00 +17°C° 0 mm 3 m/s 715 mmHg 79%
    07:00 +19°C° 0 mm 4 m/s 715 mmHg 74%
    08:00 +20°C° 0 mm 4 m/s 715 mmHg 66%
    09:00 +22°C° 0 mm 4 m/s 716 mmHg 58%
    10:00 +23°C° 0 mm 4 m/s 716 mmHg 50%
    11:00 +25°C° 0 mm 4 m/s 716 mmHg 47%
    12:00 +25°C° 0 mm 4 m/s 716 mmHg 44%
    13:00 +26°C° 0 mm 4 m/s 716 mmHg 41%
    14:00 +26°C° 0 mm 4 m/s 716 mmHg 43%
    15:00 +26°C° 0 mm 4 m/s 716 mmHg 45%
    16:00 +26°C° 0 mm 4 m/s 716 mmHg 46%
    17:00 +23°C° 0 mm 4 m/s 716 mmHg 52%
    18:00 +21°C° 0 mm 4 m/s 716 mmHg 58%
    19:00 +20°C° 0 mm 4 m/s 716 mmHg 63%
    20:00 +18°C° 0 mm 4 m/s 716 mmHg 66%
    21:00 +17°C° 0 mm 3 m/s 716 mmHg 69%
    22:00 +16°C° 0 mm 3 m/s 717 mmHg 71%
    23:00 +14°C° 0 mm 3 m/s 717 mmHg 73%

    Demain, 17 Juillet, Mercredi

    Heure Température Précipitation Vent Pression Humidité
    00:00 +14°C° 0 mm 3 m/s 717 mmHg 75%
    01:00 +13°C° 0 mm 3 m/s 717 mmHg 77%
    02:00 +13°C° 0 mm 3 m/s 716 mmHg 78%
    03:00 +12°C° 0 mm 3 m/s 716 mmHg 79%
    04:00 +12°C° 0 mm 3 m/s 716 mmHg 79%
    05:00 +14°C° 0 mm 3 m/s 716 mmHg 74%
    06:00 +16°C° 0 mm 2 m/s 717 mmHg 69%
    07:00 +18°C° 0 mm 2 m/s 717 mmHg 64%
    08:00 +20°C° 0 mm 2 m/s 717 mmHg 58%
    09:00 +22°C° 0 mm 3 m/s 718 mmHg 51%
    10:00 +25°C° 0 mm 3 m/s 718 mmHg 44%
    11:00 +26°C° 0 mm 3 m/s 718 mmHg 42%
    12:00 +27°C° 0 mm 2 m/s 718 mmHg 40%
    13:00 +28°C° 0 mm 2 m/s 718 mmHg 38%
    14:00 +28°C° 0 mm 2 m/s 718 mmHg 40%
    15:00 +28°C° 0 mm 2 m/s 718 mmHg 41%
    16:00 +28°C° 0 mm 2 m/s 717 mmHg 43%
    17:00 +26°C° 0 mm 1 m/s 717 mmHg 51%
    18:00 +23°C° 0 mm 1 m/s 717 mmHg 59%
    19:00 +21°C° 0 mm 1 m/s 717 mmHg 67%
    20:00 +20°C° 0 mm 1 m/s 717 mmHg 69%
    21:00 +19°C° 0 mm 1 m/s 717 mmHg 70%
    22:00 +18°C° 0 mm 1 m/s 717 mmHg 72%
    23:00 +17°C° 0 mm 2 m/s 717 mmHg 72%

    Après-demain, 18 Juillet, Jeudi

    Heure Température Précipitation Vent Pression Humidité
    00:00 +17°C° 0 mm 2 m/s 716 mmHg 73%
    01:00 +16°C° 0 mm 2 m/s 716 mmHg 73%
    02:00 +16°C° 0 mm 2 m/s 716 mmHg 73%
    03:00 +16°C° 0 mm 2 m/s 716 mmHg 73%
    04:00 +16°C° 0 mm 2 m/s 716 mmHg 73%
    05:00 +19°C° 0 mm 1 m/s 716 mmHg 70%
    06:00 +20°C° 0 mm 1 m/s 716 mmHg 66%
    07:00 +20°C° 0 mm 0 m/s 716 mmHg 62%
    08:00 +24°C° 0 mm 1 m/s 717 mmHg 57%
    09:00 +25°C° 0 mm 1 m/s 717 mmHg 53%
    10:00 +27°C° 0 mm 1 m/s 717 mmHg 48%
    11:00 +28°C° 0 mm 1 m/s 717 mmHg 46%
    12:00 +28°C° 0 mm 2 m/s 717 mmHg 45%
    13:00 +28°C° 0 mm 2 m/s 717 mmHg 44%
    14:00 +28°C° 0.1 mm 2 m/s 717 mmHg 46%
    15:00 +28°C° 0.1 mm 3 m/s 717 mmHg 49%
    16:00 +27°C° 0.1 mm 3 m/s 717 mmHg 52%
    17:00 +25°C° 0.2 mm 2 m/s 717 mmHg 59%
    18:00 +23°C° 0.2 mm 1 m/s 717 mmHg 66%
    19:00 +19°C° 0.2 mm 0 m/s 717 mmHg 74%
    20:00 +21°C° 0 mm 1 m/s 717 mmHg 75%
    21:00 +20°C° 0 mm 1 m/s 717 mmHg 77%
    22:00 +19°C° 0 mm 1 m/s 717 mmHg 78%
    23:00 +19°C° 0 mm 1 m/s 717 mmHg 78%

    19 Juillet, Vendredi

    Heure Température Précipitation Vent Pression Humidité
    00:00 +18°C° 0 mm 1 m/s 717 mmHg 78%
    01:00 +18°C° 0 mm 1 m/s 717 mmHg 79%
    02:00 +18°C° 0 mm 1 m/s 717 mmHg 79%
    03:00 +16°C° 0 mm 1 m/s 717 mmHg 79%
    04:00 +16°C° 0 mm 1 m/s 717 mmHg 79%
    05:00 +19°C° 0 mm 1 m/s 717 mmHg 75%
    06:00 +20°C° 0 mm 1 m/s 718 mmHg 71%
    07:00 +20°C° 0 mm 0 m/s 718 mmHg 66%
    08:00 +24°C° 0 mm 1 m/s 719 mmHg 59%
    09:00 +26°C° 0 mm 1 m/s 719 mmHg 52%
    10:00 +27°C° 0 mm 1 m/s 719 mmHg 46%
    11:00 +28°C° 0 mm 2 m/s 719 mmHg 44%
    12:00 +28°C° 0 mm 2 m/s 719 mmHg 42%
    13:00 +28°C° 0 mm 2 m/s 719 mmHg 41%
    14:00 +28°C° 0 mm 2 m/s 719 mmHg 44%
    15:00 +27°C° 0 mm 2 m/s 719 mmHg 47%
    16:00 +27°C° 0 mm 2 m/s 719 mmHg 50%
    17:00 +25°C° 0 mm 1 m/s 719 mmHg 57%
    18:00 +23°C° 0 mm 1 m/s 719 mmHg 64%
    19:00 +20°C° 0 mm 0 m/s 719 mmHg 70%
    20:00 +21°C° 0 mm 1 m/s 719 mmHg 72%
    21:00 +20°C° 0 mm 1 m/s 719 mmHg 74%
    22:00 +19°C° 0 mm 1 m/s 719 mmHg 76%
    23:00 +19°C° 0 mm 1 m/s 719 mmHg 76%

    20 Juillet, Samedi

    Heure Température Précipitation Vent Pression Humidité
    00:00 +18°C° 0 mm 1 m/s 719 mmHg 76%
    01:00 +18°C° 0 mm 1 m/s 719 mmHg 77%
    02:00 +18°C° 0 mm 1 m/s 719 mmHg 76%
    03:00 +18°C° 0 mm 1 m/s 719 mmHg 76%
    04:00 +16°C° 0 mm 1 m/s 719 mmHg 76%
    05:00 +19°C° 0 mm 1 m/s 719 mmHg 73%
    06:00 +21°C° 0 mm 1 m/s 719 mmHg 69%
    07:00 +22°C° 0 mm 1 m/s 720 mmHg 65%
    08:00 +24°C° 0 mm 1 m/s 720 mmHg 59%
    09:00 +26°C° 0 mm 1 m/s 720 mmHg 53%
    10:00 +28°C° 0 mm 1 m/s 721 mmHg 47%
    11:00 +29°C° 0 mm 1 m/s 721 mmHg 44%
    12:00 +30°C° 0 mm 1 m/s 721 mmHg 42%
    13:00 +30°C° 0 mm 2 m/s 721 mmHg 40%
    14:00 +30°C° 0 mm 2 m/s 721 mmHg 42%
    15:00 +30°C° 0 mm 2 m/s 720 mmHg 43%
    16:00 +29°C° 0 mm 2 m/s 720 mmHg 45%
    17:00 +27°C° 0 mm 2 m/s 720 mmHg 53%
    18:00 +25°C° 0 mm 1 m/s 720 mmHg 62%
    19:00 +21°C° 0 mm 0 m/s 720 mmHg 70%
    20:00 +22°C° 0 mm 1 m/s 720 mmHg 71%
    21:00 +22°C° 0 mm 1 m/s 720 mmHg 72%
    22:00 +21°C° 0 mm 1 m/s 720 mmHg 74%
    23:00 +21°C° 0 mm 1 m/s 720 mmHg 74%

    21 Juillet, Dimanche

    Heure Température Précipitation Vent Pression Humidité
    00:00 +20°C° 0 mm 1 m/s 720 mmHg 74%
    01:00 +20°C° 0 mm 1 m/s 720 mmHg 74%
    02:00 +20°C° 0 mm 1 m/s 720 mmHg 74%
    03:00 +20°C° 0 mm 1 m/s 720 mmHg 74%
    04:00 +20°C° 0 mm 1 m/s 719 mmHg 74%
    05:00 +21°C° 0 mm 1 m/s 720 mmHg 70%
    06:00 +21°C° 0 mm 0 m/s 720 mmHg 66%
    07:00 +23°C° 0 mm 0 m/s 720 mmHg 62%
    08:00 +25°C° 0 mm 0 m/s 721 mmHg 56%
    09:00 +28°C° 0 mm 1 m/s 721 mmHg 51%
    10:00 +30°C° 0 mm 1 m/s 721 mmHg 45%
    11:00 +31°C° 0 mm 1 m/s 721 mmHg 42%
    12:00 +31°C° 0 mm 1 m/s 721 mmHg 39%
    13:00 +32°C° 0 mm 2 m/s 721 mmHg 36%
    14:00 +31°C° 0 mm 2 m/s 721 mmHg 39%
    15:00 +31°C° 0 mm 2 m/s 721 mmHg 41%
    16:00 +30°C° 0 mm 2 m/s 721 mmHg 44%
    17:00 +28°C° 0 mm 2 m/s 721 mmHg 51%
    18:00 +26°C° 0 mm 1 m/s 720 mmHg 59%
    19:00 +22°C° 0 mm 0 m/s 720 mmHg 66%
    20:00 +24°C° 0 mm 1 m/s 721 mmHg 67%
    21:00 +23°C° 0 mm 1 m/s 721 mmHg 68%
    22:00 +22°C° 0 mm 1 m/s 721 mmHg 69%
    23:00 +21°C° 0.1 mm 2 m/s 721 mmHg 71%
    Voir plus